Home   Weather   Lahore   Past weeks

Flag for Pakistan Past Weather in Lahore, Pakistan — Yesterday and Last 2 Weeks

Now
52 °F

Fog.


Feels Like: 52 °F
Forecast: 55 / 74 °F
Wind: No wind

Location: Lahore Airport

Current Time: Dec 6, 2016 at 5:54:45 am

Latest Report: Dec 6, 2016 at 5:25 am


Visibility: 2 mi

Pressure: 30.07 "Hg

Humidity: 82%

Dew Point: 46 °F

Location of LahoreLocation

Past Weather in Lahore — Graph

°F

Lahore Temperature Yesterday

Maximum temperature yesterday: 77 °F (at 1:55 pm)
Minimum temperature yesterday: 48 °F (at 6:55 am)
Average temperature yesterday: 63 °F

High & Low Weather Summary for the Past Weeks

 TemperatureHumidityPressure
High84 °F (Nov 21, 1:55 pm)100% (Dec 2, 2:25 am)30.18 "Hg (Dec 2, 2:25 am)
Low46 °F (Dec 3, 7:25 am)17% (Nov 28, 1:55 pm)29.89 "Hg (Nov 21, 3:25 pm)
Average66 °F60%30.01 "Hg
* Reported Nov 21 4:25 am — Dec 6 4:25 am, Lahore, Weather by CustomWeather, © 2016

Note: Actual official high and low records may vary slightly from our data, if they occured in-between our weather recording intervals... More about our weather records

Advertising

Lahore Weather History for the Previous 24 Hours

Scroll right to see more
 ConditionsComfort  
Time TempWeatherWind HumidityBarometerVisibility
4:25 am
Tue, Dec 6
54 °FPassing clouds.No wind82%30.04 "Hg2 mi
3:55 am54 °FPassing clouds.No wind82%30.04 "Hg2 mi
3:25 am54 °FPassing clouds.No wind82%30.07 "Hg2 mi
2:55 am55 °FClear.No wind77%30.04 "Hg2 mi
2:25 am57 °FClear.No wind77%30.07 "Hg2 mi
1:55 am57 °FClear.No wind77%30.07 "Hg2 mi
1:25 am61 °FClear.No wind68%30.07 "Hg2 mi
12:55 am59 °FClear.No wind72%30.07 "Hg2 mi
12:25 am61 °FClear.No wind72%30.07 "Hg2 mi
11:55 pm
Mon, Dec 5
61 °FClear.No wind72%30.07 "Hg2 mi
11:25 pm61 °FClear.No wind72%30.07 "Hg2 mi
10:55 pm63 °FClear.No wind68%30.07 "Hg2 mi
10:25 pm63 °FClear.No wind64%30.07 "Hg2 mi
9:55 pm64 °FClear.No wind60%30.07 "Hg2 mi
9:25 pm64 °FClear.No wind60%30.07 "Hg2 mi
8:55 pm66 °FClear.No wind56%30.07 "Hg2 mi
7:55 pm70 °FHaze.No wind46%30.04 "Hg2 mi
7:25 pm72 °FHaze.No wind44%30.04 "Hg2 mi
6:55 pm72 °FHaze.No wind44%30.04 "Hg2 mi
6:25 pm73 °FHaze.No wind38%30.04 "Hg2 mi
5:55 pm73 °FHaze.No wind38%30.01 "Hg2 mi
5:28 pm73 °FHaze.No wind36%30.01 "Hg2 mi
4:55 pm75 °FHaze.No wind34%30.01 "Hg2 mi
3:25 pm77 °FHaze.5 mph30%30.01 "Hg2 mi
2:55 pm77 °FHaze.5 mph30%30.01 "Hg2 mi
2:25 pm77 °FHaze.6 mph30%30.01 "Hg2 mi
1:55 pm77 °FHaze.7 mph30%30.01 "Hg2 mi
12:25 pm73 °FHaze.6 mph33%30.07 "Hg2 mi
11:55 am72 °FHaze.7 mph36%30.07 "Hg2 mi
11:25 am70 °FHaze.6 mph40%30.09 "Hg1 mi
10:55 am68 °FHaze.6 mph43%30.09 "Hg1 mi
10:25 am64 °FHaze.6 mph49%30.09 "Hg1 mi
9:55 am63 °FPassing clouds.3 mph49%30.09 "Hg1 mi
9:25 am59 °FScattered clouds.No wind63%30.09 "Hg1 mi
8:55 am57 °FScattered clouds.No wind63%30.09 "Hg1 mi
8:25 am54 °FScattered clouds.No wind77%30.09 "Hg1 mi
7:55 am52 °FFog.No wind82%30.09 "Hg1 mi
7:25 am50 °FFog.No wind82%30.07 "Hg1 mi
6:55 am48 °FFog.No wind87%30.07 "Hg1 mi
6:25 am50 °FFog.No wind88%30.07 "Hg1 mi
5:55 am50 °FFog.No wind88%30.07 "Hg2 mi
5:25 am52 °FPassing clouds.No wind82%30.07 "Hg2 mi
Weather by CustomWeather, © 2016

See weather overviewHow to use our weather pages